Dallas Addison, TX

7:27 AM CDT on May 28, 2017 (GMT -0500)
Addison

Weather History for KADS - October, 2012

Change the Weather History Date:

Monday, October 29, 2012

  Actual Average Record
Temperature  
Mean Temperature 55 °F -  
Max Temperature 66 °F 70 °F 85 °F (2016)
Min Temperature 44 °F 54 °F 42 °F (2011)
Degree Days  
Heating Degree Days 10    
Growing Degree Days 5 (Base 50)    
Moisture  
Dew Point 26 °F    
Average Humidity 38    
Maximum Humidity 53    
Minimum Humidity 19    
Precipitation  
Precipitation 0.00 in - - ()
Sea Level Pressure  
Sea Level Pressure 30.22 in    
Wind  
Wind Speed 4 mph (East)    
Max Wind Speed 6 mph    
Max Gust Speed -    
Visibility 9 miles    
Events      
Averages and records for this station are not official NWS values.
T = Trace of Precipitation, MM = Missing Value Source: NWS Daily Summary

Daily Weather History Graph

Daily Weather History Graph

Search for Another Location

Airport or City:

Trip Planner

Search our weather history database for the weather conditions in past years. The results will help you decide how hot, cold, wet, or windy it might be!

Date:

Astronomy

Oct. 29, 2012 Rise Set
Actual Time 7:43 AM CDT 6:38 PM CDT
Civil Twilight 7:17 AM CDT 7:03 PM CDT
Nautical Twilight 6:48 AM CDT 7:32 PM CDT
Astronomical Twilight 6:19 AM CDT 8:01 PM CDT
Moon 6:33 PM CDT (10/29) 7:33 AM CDT (10/29)
Length of Visible Light 11h 45m
Length of Day
10h 55m
Full, 100% of the Moon is Illuminated
Oct 29
Full
Oct 29
Full
Nov 6
Last Quarter
Nov 13
New
Nov 20
First Quarter

Hourly Weather History & Observations

Time (CDT) Temp. Windchill Dew Point Humidity Pressure Visibility Wind Dir Wind Speed Gust Speed Precip Events Conditions
12:15 AM 50.0 °F - 24.8 °F 37% 30.25 in 3.0 mi East 3.5 mph - N/A   Haze
12:35 AM 50.0 °F - 24.8 °F 37% 30.24 in 2.5 mi ENE 3.5 mph - N/A   Haze
12:55 AM 50.0 °F - 24.8 °F 37% 30.24 in 1.5 mi ENE 3.5 mph - N/A   Haze
1:15 AM 50.0 °F - 26.6 °F 40% 30.25 in 1.0 mi ENE 4.6 mph - N/A   Haze
1:35 AM 48.2 °F - 26.6 °F 43% 30.26 in 1.5 mi ENE 4.6 mph - N/A   Haze
1:55 AM 48.2 °F - 26.6 °F 43% 30.26 in 1.0 mi ENE 4.6 mph - N/A   Haze
2:15 AM 48.2 °F - 26.6 °F 43% 30.26 in 0.8 mi ENE 3.5 mph - N/A   Haze
2:35 AM 48.2 °F - 26.6 °F 43% 30.27 in 1.2 mi Calm Calm - N/A   Haze
2:55 AM 46.4 °F - 28.4 °F 50% 30.26 in 7.0 mi Calm Calm - N/A   Clear
3:15 AM 44.6 °F - 28.4 °F 53% 30.26 in 10.0 mi Calm Calm - N/A   Clear
3:35 AM 46.4 °F 45.2 °F 23.0 °F 40% 30.26 in 2.5 mi ENE 3.5 mph - N/A   Haze
3:55 AM 46.4 °F 45.2 °F 23.0 °F 40% 30.26 in 1.0 mi ENE 3.5 mph - N/A   Unknown
4:35 AM 46.4 °F 45.2 °F 23.0 °F 40% 30.26 in 7.0 mi ENE 3.5 mph - N/A   Clear
4:55 AM 44.6 °F 43.1 °F 24.8 °F 46% 30.26 in 7.0 mi ENE 3.5 mph - N/A   Clear
5:15 AM 44.6 °F 42.2 °F 24.8 °F 46% 30.26 in 10.0 mi East 4.6 mph - N/A   Clear
5:55 AM 44.6 °F 42.2 °F 26.6 °F 49% 30.26 in 10.0 mi East 4.6 mph - N/A   Clear
6:47 AM 46.4 °F 44.3 °F 24.8 °F 43% 30.27 in 10.0 mi ENE 4.6 mph - N/A   Clear
7:47 AM 44.6 °F 43.1 °F 26.6 °F 49% 30.27 in 13.0 mi East 3.5 mph - N/A   Clear
8:47 AM 46.4 °F - 30.2 °F 53% 30.30 in 10.0 mi Calm Calm - N/A   Clear
10:47 AM 57.2 °F - 24.8 °F 29% 30.31 in 13.0 mi South 5.8 mph - N/A   Clear
11:49 AM 59.0 °F - 24.8 °F 27% 30.29 in 13.0 mi ESE 3.5 mph - N/A   Scattered Clouds
12:49 PM 60.8 °F - 23.0 °F 23% 30.28 in 13.0 mi Calm Calm - N/A   Scattered Clouds
1:47 PM 64.4 °F - 23.0 °F 21% 30.24 in 13.0 mi SE 5.8 mph - N/A   Scattered Clouds
3:48 PM 66.2 °F - 23.0 °F 19% 30.17 in 20.0 mi East 5.8 mph - N/A   Clear
4:52 PM 66.2 °F - 23.0 °F 19% 30.16 in 20.0 mi SW 4.6 mph - N/A   Clear
5:51 PM 64.4 °F - 26.6 °F 24% 30.15 in 20.0 mi SSE 5.8 mph - N/A   Clear
6:50 PM 62.6 °F - 26.6 °F 26% 30.14 in 15.0 mi East 4.6 mph - N/A   Clear
7:50 PM 60.8 °F - 28.4 °F 29% 30.14 in 15.0 mi East 5.8 mph - N/A   Clear
8:47 PM 59.0 °F - 28.4 °F 31% 30.14 in 13.0 mi ESE 4.6 mph - N/A   Clear
9:47 PM 55.4 °F - 28.4 °F 36% 30.15 in 13.0 mi ESE 4.6 mph - N/A   Clear
10:35 PM 55.4 °F - 32.0 °F 41% 30.15 in 10.0 mi ESE 5.8 mph - N/A   Clear
10:55 PM 55.4 °F - 30.2 °F 38% 30.15 in 10.0 mi East 3.5 mph - N/A   Clear
11:15 PM 53.6 °F - 32.0 °F 44% 30.14 in 10.0 mi Calm Calm - N/A   Clear
11:35 PM 51.8 °F - 30.2 °F 44% 30.13 in 10.0 mi SE 4.6 mph - N/A   Clear
11:55 PM 53.6 °F - 30.2 °F 41% 30.13 in 10.0 mi SE 4.6 mph - N/A   Clear